Theta_e
342 347 351 337 323 319 314 315 321 320 322 328 329 325 325 327 323 317 340 340 339 341 348 351 357 357 357 361 358 358 359 360 360 360 361 361 361 361 361 361 362 361 361 361 362 362 362 362 362
340 347 345 330 316 310 313 321 318 321 326 329 329 328 326 324 332 334 335 341 342 343 347 350 359 359 358 361 361 359 360 361 360 361 361 361 361 361 361 360 361 361 363 362 363 362 361 362 362
348 353 325 322 319 312 313 321 321 327 329 327 326 330 328 324 332 334 339 340 342 345 348 352 358 360 359 360 359 360 359 361 362 361 360 361 361 361 361 361 361 361 363 362 362 361 360 360 360
348 346 340 322 316 319 320 322 324 326 327 328 328 324 332 336 333 338 346 346 346 345 348 356 359 360 360 359 359 359 361 361 362 361 362 361 362 361 361 361 362 362 362 363 361 361 362 359 358
347 334 320 319 318 321 323 325 328 324 325 326 326 324 327 336 340 344 346 346 345 346 350 353 363 361 360 359 359 359 360 361 362 361 360 363 361 362 361 361 361 362 362 362 359 358 358 357 355
333 329 314 313 317 322 326 328 326 326 321 327 326 325 327 337 341 342 347 345 346 345 348 353 361 361 361 360 360 361 361 361 362 363 363 361 364 360 360 361 361 361 361 362 360 360 358 354 351
322 320 316 315 319 321 326 328 326 326 326 325 330 322 328 333 341 343 344 346 346 346 347 352 355 360 360 361 361 361 361 361 361 363 362 362 361 359 358 360 360 360 360 360 360 360 360 358 356
328 328 319 319 317 318 327 328 330 327 326 334 333 322 324 334 340 341 341 344 346 345 345 350 352 353 356 356 361 361 361 360 361 362 361 363 360 357 358 362 361 359 359 358 358 359 359 361 360
340 319 312 320 321 321 327 326 332 332 328 331 332 330 333 337 340 338 338 341 342 342 343 340 351 355 358 358 359 361 361 362 362 360 361 361 355 354 354 360 359 356 357 358 357 359 360 360 362
331 318 318 326 324 325 328 327 326 326 326 328 330 334 335 337 337 335 334 334 339 342 344 345 347 351 353 350 359 359 356 356 356 357 357 353 358 351 346 358 362 360 360 361 363 364 363 359 355
332 319 325 328 332 331 328 326 328 326 324 329 329 331 334 335 335 334 334 336 340 342 338 344 340 342 352 354 357 355 355 355 356 361 363 358 353 356 353 355 352 354 359 353 358 355 355 354 354
327 332 331 329 331 329 328 330 328 327 327 334 334 334 335 334 334 333 334 337 340 345 346 348 344 342 351 356 352 355 353 348 349 354 363 357 341 348 351 354 357 358 355 355 356 357 358 357 356
326 331 331 330 334 332 331 326 327 328 333 335 335 335 334 334 333 335 337 342 343 344 346 349 354 351 340 337 349 351 353 347 352 356 351 354 357 361 359 359 356 361 356 357 358 358 357 356 354
327 333 330 331 332 332 329 328 329 328 333 333 332 332 334 334 334 335 337 338 342 343 347 350 353 359 355 351 357 357 352 350 351 356 359 365 362 360 362 362 356 358 357 361 362 361 360 358 350
334 328 329 327 329 329 325 321 324 329 332 330 331 333 334 335 335 337 337 339 342 345 348 350 351 355 350 363 361 348 345 352 355 357 362 364 361 358 372 360 361 363 364 364 364 361 361 352 350
327 327 317 323 326 327 325 314 328 330 329 327 328 331 334 334 336 338 339 341 342 347 350 349 349 351 355 357 361 351 353 360 351 356 360 364 361 362 367 358 348 347 348 359 361 358 356 350 350
315 311 314 320 326 327 325 320 328 333 328 326 329 332 332 335 336 340 340 343 344 346 351 350 352 352 349 363 350 356 357 360 347 355 352 361 361 360 362 353 338 336 346 345 353 358 357 352 353
310 311 315 318 326 327 322 321 327 331 328 326 327 331 332 332 336 341 342 341 346 349 351 349 354 352 350 363 360 351 346 353 360 357 357 365 361 360 351 352 335 337 337 341 356 368 367 359 354
317 315 314 321 327 323 322 323 322 325 328 328 328 331 330 332 338 340 341 342 345 347 349 356 353 355 359 360 356 355 346 352 360 363 364 358 355 361 355 354 345 338 344 347 368 365 363 358 358
315 313 317 321 325 322 322 319 323 321 321 328 328 329 330 333 335 340 339 340 343 347 349 354 359 363 361 364 363 354 351 360 348 363 367 364 359 362 358 356 339 336 348 355 363 366 355 343 347
312 311 315 314 322 323 320 316 321 326 328 331 330 331 332 330 333 336 339 340 343 347 351 352 355 362 363 363 356 354 358 355 361 357 360 360 361 364 355 364 354 355 335 336 360 357 338 332 341
308 319 317 316 318 311 319 306 315 320 323 328 330 332 330 333 337 335 337 339 342 346 351 356 359 361 361 367 361 357 350 352 356 349 353 359 366 368 361 368 369 361 349 348 361 361 355 341 338
310 317 316 314 313 316 313 308 311 319 318 318 321 330 331 334 335 333 337 339 343 346 347 356 359 362 365 364 366 361 361 349 348 360 364 368 370 369 366 368 368 368 367 367 366 365 364 362 360
315 314 316 315 312 304 311 311 309 313 318 322 330 331 333 334 335 337 339 343 342 347 346 352 358 359 363 363 363 361 356 345 342 355 357 357 359 361 366 368 366 369 367 366 367 367 366 367 366
311 308 302 301 302 303 315 311 314 317 321 325 330 333 333 339 332 334 337 339 343 343 347 353 357 357 360 359 360 359 360 356 358 361 360 365 361 356 361 371 368 368 368 367 368 368 365 364 361
310 309 303 298 299 301 314 307 314 322 326 330 332 335 336 336 333 333 338 341 343 345 348 351 356 357 358 359 360 363 363 357 358 363 362 366 353 355 350 358 366 369 367 367 368 365 365 360 357
308 307 314 307 306 302 308 311 318 323 325 328 329 333 335 335 336 331 338 343 344 346 348 353 356 357 357 356 360 360 362 363 359 371 367 362 353 356 347 350 358 366 368 365 364 362 364 359 359
312 315 305 307 297 298 304 302 304 313 316 325 325 327 331 336 337 337 337 340 344 347 348 351 357 358 358 357 357 357 358 360 363 368 353 361 355 351 355 354 361 365 367 368 368 364 363 361 353
312 309 309 308 307 302 301 304 315 318 321 325 328 331 331 333 335 340 342 338 344 345 347 348 353 357 357 357 356 356 356 358 362 361 358 362 366 350 357 366 363 366 365 368 368 366 361 360 360
313 305 306 305 302 306 305 306 320 325 328 327 326 333 333 335 335 336 337 340 341 346 347 347 351 354 356 356 359 356 357 357 356 361 364 369 367 369 368 365 368 365 365 363 365 362 361 359 357
Wind_Speed
8 11 6 10 6 3 14 15 10 17 16 13 14 5 8 11 5 14 14 18 18 13 9 8 10 10 10 12 14 11 12 14 13 13 13 15 14 14 14 14 15 15 14 15 15 15 13 14 11
10 14 11 3 7 6 13 21 5 14 17 19 6 24 23 23 20 18 17 20 17 13 11 11 11 12 11 11 13 12 13 13 13 13 14 14 14 14 15 14 14 13 13 14 15 15 14 13 10
11 11 10 3 5 7 10 19 14 17 14 15 25 23 17 19 20 17 21 20 15 11 11 12 12 12 12 13 11 12 12 13 13 12 14 13 14 14 15 14 13 13 11 13 13 14 13 11 9
10 11 5 7 12 17 16 16 15 15 19 16 18 18 22 22 23 21 25 13 5 4 16 13 13 14 13 12 11 11 12 12 14 13 12 12 14 13 14 13 13 13 14 14 12 11 12 10 7
12 7 5 4 13 10 14 16 19 7 17 17 20 22 22 23 25 22 21 20 14 13 16 14 13 15 15 13 13 13 13 12 13 13 11 12 13 13 13 12 12 13 12 13 11 11 10 9 6
8 2 2 4 17 14 18 13 6 21 11 8 20 19 19 18 23 17 25 15 14 15 17 14 14 14 16 14 13 13 13 13 12 12 11 12 12 12 12 11 11 12 11 11 10 10 8 8 5
10 5 6 6 13 12 18 10 11 13 17 15 19 20 18 14 23 15 15 19 9 16 18 14 13 14 15 14 14 13 13 12 12 11 12 12 12 12 11 11 11 10 9 9 7 7 7 7 6
13 3 13 7 13 2 17 10 15 12 16 21 22 14 16 18 17 9 17 16 16 13 19 16 14 13 12 11 13 13 14 13 12 13 14 14 14 12 11 10 9 9 8 7 6 6 6 7 9
20 4 3 7 16 12 15 13 8 10 18 16 12 23 17 17 16 11 13 20 14 10 11 11 9 13 10 9 10 11 14 14 12 10 12 13 9 10 12 10 9 9 8 7 7 9 8 8 9
6 2 3 11 13 6 10 12 13 13 10 17 15 22 18 17 14 13 13 11 13 15 4 8 3 15 12 9 9 8 9 7 7 10 10 7 5 7 10 11 11 11 10 10 11 10 10 10 7
6 9 14 8 2 14 12 6 12 15 15 19 11 21 17 13 13 12 13 14 15 9 3 11 8 5 8 7 7 4 6 5 3 3 2 8 8 3 5 5 5 6 10 6 8 7 7 11 10
7 10 10 2 12 5 8 9 15 12 14 26 22 19 16 13 12 14 14 17 17 15 13 8 13 11 10 2 4 8 7 6 5 2 7 3 5 5 10 6 7 6 6 8 7 3 3 2 5
19 7 6 5 5 5 6 8 4 11 12 18 20 20 16 10 8 13 12 20 13 20 14 14 12 7 12 7 5 5 4 4 7 7 10 5 4 1 3 4 4 5 4 5 5 5 5 5 4
15 9 7 3 8 11 2 7 10 12 16 18 17 19 14 10 11 10 13 13 13 13 12 15 10 4 13 10 11 5 5 5 5 7 8 4 1 0 2 5 7 3 4 4 2 2 4 4 4
13 10 7 4 3 8 19 13 10 13 16 18 18 17 16 13 5 15 11 11 11 15 17 14 10 9 3 3 3 15 13 4 4 6 4 3 7 2 2 4 3 3 2 3 2 4 5 3 4
10 9 3 2 3 2 11 9 6 15 14 14 18 13 18 11 17 10 11 12 9 12 12 13 13 12 10 6 4 4 3 3 4 4 4 2 7 3 5 2 9 11 9 9 4 5 4 3 5
7 6 6 3 10 4 3 2 18 20 14 14 17 18 14 20 6 14 7 14 14 9 10 6 12 10 4 5 3 7 1 4 7 5 4 4 5 6 1 7 6 6 7 11 11 3 1 1 2
5 3 5 12 9 11 8 6 0 7 15 12 15 19 15 13 24 15 12 12 15 12 9 7 8 8 11 4 4 6 7 6 3 3 2 4 4 4 8 4 10 10 6 13 12 3 1 2 2
7 12 13 15 9 8 7 10 3 8 12 4 8 19 15 18 19 17 15 15 17 14 10 9 9 6 5 3 4 5 6 7 4 5 5 15 16 2 7 3 9 9 9 14 3 3 5 4 4
9 1 9 2 7 2 5 7 7 3 16 22 13 14 18 18 16 18 17 16 19 16 13 10 8 7 5 1 2 2 3 4 3 4 2 3 1 3 9 1 17 13 8 16 5 3 5 4 11
9 9 8 6 5 3 4 4 10 14 16 10 9 16 16 9 20 17 17 17 17 17 14 11 9 7 6 4 2 2 2 4 4 4 5 4 2 3 9 5 13 10 8 9 7 8 5 2 5
12 10 3 7 14 5 7 2 5 6 7 8 14 20 14 23 20 17 18 15 18 16 15 15 13 12 8 3 2 2 3 2 1 5 2 3 4 4 5 2 2 4 9 9 4 6 5 3 11
13 5 11 14 11 9 11 4 1 3 5 16 18 30 9 17 18 10 20 17 18 16 13 14 11 10 7 6 4 2 2 5 7 4 6 4 2 2 6 2 3 2 4 5 6 3 3 3 1
13 7 10 15 11 14 13 10 3 4 9 10 29 21 19 21 19 23 18 19 16 17 15 15 13 11 7 6 6 6 5 11 8 8 3 5 6 5 5 3 4 4 5 4 4 4 5 5 3
11 14 10 14 12 3 10 7 4 15 18 18 24 21 21 20 11 11 18 16 17 17 16 16 15 12 10 10 9 7 7 8 9 4 4 2 3 3 5 2 3 2 4 4 2 1 5 3 4
8 15 12 6 5 7 7 4 6 14 14 14 18 20 22 21 12 24 18 19 17 19 17 19 17 14 11 10 9 7 7 6 5 5 3 1 2 4 9 8 4 4 3 4 3 3 3 5 5
15 10 17 8 7 13 4 7 7 14 10 6 7 1 15 15 13 13 18 19 17 18 16 16 18 15 14 12 9 8 6 7 6 2 4 4 3 2 5 9 10 3 2 4 3 3 4 3 4
12 4 7 5 6 19 9 3 1 15 4 12 9 11 8 4 14 13 19 18 17 19 17 15 18 16 14 13 11 10 10 9 7 2 7 6 6 5 5 12 9 4 3 3 3 4 4 3 4
8 6 12 7 6 6 2 1 10 12 25 10 3 5 6 15 26 15 7 15 18 15 18 16 17 17 14 12 12 10 10 10 8 6 11 8 4 11 11 4 5 5 4 2 2 4 7 5 5
11 8 18 12 3 2 4 5 12 9 4 10 5 5 7 8 7 10 15 7 15 13 16 16 16 17 14 13 10 11 10 10 11 9 6 5 4 5 5 5 2 4 4 5 4 5 6 5 6
Wind_Direction
237 244 245 43 304 175 98 86 41 117 112 100 134 140 143 180 46 106 118 127 122 135 138 133 118 102 115 113 106 114 111 105 102 102 103 99 97 98 100 96 94 94 97 98 99 99 103 100 105
255 264 41 149 245 118 111 98 81 75 79 106 63 74 75 82 96 121 133 139 148 145 150 139 123 120 121 114 110 109 107 110 106 103 99 98 103 102 94 97 91 90 93 97 96 103 103 101 103
249 247 123 196 243 110 104 97 95 85 56 62 81 87 97 115 119 128 130 144 138 157 127 112 119 122 117 110 111 114 114 116 107 108 104 104 105 102 99 94 90 93 99 108 96 101 102 98 97
236 210 222 209 115 100 109 99 119 118 93 91 98 87 102 109 116 129 99 81 81 261 109 121 126 122 119 118 117 119 121 114 103 104 106 103 105 102 99 95 93 91 97 106 107 104 107 99 105
244 36 347 98 104 101 93 85 81 38 68 115 102 95 119 114 117 121 124 153 171 126 123 126 133 127 127 123 126 124 122 113 109 106 110 107 112 108 103 104 96 91 95 102 103 102 106 107 108
58 252 301 27 103 92 84 107 164 116 100 121 99 102 109 123 130 124 145 153 154 146 118 131 135 129 123 128 127 122 117 116 121 117 112 111 116 115 113 109 102 99 99 112 109 113 111 113 125
75 272 272 239 101 91 95 84 63 137 156 122 127 114 128 128 123 162 149 101 326 136 124 134 135 127 127 124 122 123 124 128 126 125 124 123 123 123 120 118 113 111 112 118 126 124 133 144 164
144 239 322 106 100 151 120 114 63 107 125 125 130 134 137 138 135 164 119 149 175 167 130 134 136 139 136 132 123 127 126 130 140 148 151 152 140 134 136 130 127 131 130 138 148 160 167 177 196
114 85 304 359 146 133 119 89 98 95 134 64 335 136 146 149 144 109 142 145 128 123 135 75 144 137 115 134 136 140 144 151 159 162 175 169 149 148 159 120 148 153 165 173 195 198 196 215 228
66 266 197 261 350 46 89 122 136 140 105 149 157 132 135 143 151 162 138 140 123 109 81 24 290 143 156 126 162 159 153 176 195 189 139 270 198 139 140 152 164 173 183 196 217 217 211 226 233
208 154 219 249 163 232 114 139 137 142 137 115 107 130 142 164 129 164 149 142 108 122 201 146 95 313 126 147 195 164 182 198 169 259 83 187 58 38 163 157 180 190 199 212 217 224 218 224 216
268 115 183 158 181 339 126 71 76 21 143 150 151 137 150 173 179 151 150 121 134 139 129 156 137 210 92 291 243 176 186 144 170 245 52 39 149 161 253 209 192 206 179 211 206 202 221 149 266
5 98 120 82 0 31 0 115 19 104 114 124 132 143 164 157 176 112 146 131 153 144 164 111 126 168 122 215 310 228 216 156 116 112 54 301 255 4 83 48 305 234 177 210 213 186 203 188 198
206 100 103 54 356 112 220 334 123 122 135 133 147 150 168 203 141 131 134 135 135 134 114 116 114 141 153 193 182 64 343 166 151 147 151 239 161 77 138 193 218 221 204 218 114 154 223 215 93
111 131 119 113 357 71 88 288 153 142 146 148 160 164 147 132 2 156 137 136 153 128 133 132 157 123 72 163 185 127 232 149 68 96 120 281 12 232 271 276 285 282 74 34 19 294 288 150 121
168 138 132 227 179 37 109 285 197 165 154 166 149 146 149 102 171 132 152 146 146 132 128 154 140 146 185 156 233 26 352 105 124 194 159 177 197 4 268 48 30 10 9 343 214 234 242 169 152
19 53 319 221 183 122 224 328 139 268 165 179 152 152 149 167 129 145 175 147 145 117 129 133 139 154 59 178 23 128 298 9 99 254 135 136 199 237 196 35 67 58 22 329 282 208 281 46 171
156 139 31 244 188 201 210 210 91 238 310 170 176 147 154 156 160 163 166 130 126 134 145 146 127 127 189 127 131 50 11 297 216 41 110 123 277 231 16 22 90 56 322 298 269 53 5 226 242
161 183 145 210 137 184 226 247 229 317 304 182 253 146 164 160 157 166 166 151 134 144 155 119 127 147 137 177 128 151 190 243 157 137 176 123 241 48 71 110 52 33 244 241 82 347 347 312 88
253 226 112 163 115 187 147 236 144 113 271 264 223 185 174 156 165 157 157 160 150 148 162 125 136 154 177 161 95 98 209 260 188 93 136 225 100 356 95 107 121 227 303 265 37 346 33 2 16
258 255 142 140 337 136 146 222 223 209 221 289 229 226 192 156 159 162 168 167 152 152 151 147 140 164 225 153 219 164 285 269 118 164 181 222 186 221 144 207 130 195 114 290 309 71 83 165 23
245 68 342 172 192 218 187 291 238 217 172 285 264 233 175 163 183 172 165 171 159 154 160 153 160 172 194 202 232 238 194 270 118 245 111 156 222 350 318 161 105 130 160 228 32 31 134 147 108
282 180 243 301 272 156 188 230 246 348 196 164 264 260 211 226 168 182 168 166 155 153 162 153 165 166 197 188 202 184 142 43 308 319 148 144 154 263 283 139 10 348 330 14 4 355 355 314 22
303 262 244 253 235 239 197 214 182 197 237 184 217 199 194 221 197 183 169 165 154 157 164 155 159 166 201 186 196 203 106 152 252 215 195 187 191 194 223 192 166 48 353 21 336 3 338 345 358
236 262 260 241 237 249 125 222 202 218 210 212 223 196 212 222 164 185 167 164 161 160 164 152 159 166 183 199 194 202 195 205 229 258 203 298 351 33 222 212 121 161 208 247 290 353 301 303 339
229 264 261 313 269 316 225 23 337 220 245 192 188 211 198 218 193 191 169 162 167 161 162 158 162 166 183 203 187 205 215 223 212 213 279 127 3 40 46 325 207 196 259 284 258 268 258 69 76
264 243 329 138 254 253 118 65 348 283 256 150 204 243 196 215 218 211 171 164 166 162 163 156 158 166 178 201 188 197 214 246 243 236 236 131 107 197 19 308 287 205 234 278 320 299 321 335 208
304 64 277 324 251 269 91 81 277 277 12 294 178 192 215 296 287 216 176 167 167 162 161 161 158 168 180 196 187 191 196 228 247 275 14 298 89 51 200 212 268 295 253 296 335 306 309 347 325
10 21 329 313 303 286 71 251 168 254 176 205 151 210 143 164 248 231 226 174 163 174 161 166 165 167 180 192 183 195 198 212 219 219 184 226 150 181 240 221 254 290 294 240 283 300 303 315 298
127 148 276 288 49 42 312 266 347 309 94 121 83 61 93 70 28 331 336 279 163 172 162 169 172 165 180 179 175 184 190 207 207 218 226 185 199 240 244 246 224 285 304 293 221 250 297 298 269